TITAN 3C TRANSTAGE DEB, 26781

Orbit data source: Space-Track

TITAN 3C TRANSTAGE DEB, 26781 is space debris in HEO originally from a launch on Tue, 21 Dec 1965 UTC launched from the Air Force Eastern Test Range (AFETR). Debris objects in space refer to the collection of defunct objects orbiting the Earth. Examples of debris include non-operational satellites, rocket bodies, and fragments generated from explosions, collisions, or faulty payload assembly.

Loading next visibility...
Identifier
26781, 1965-108AZ
Orbit
HEO
Country
Flag of USUS
Related business
Manufacturer
Unknown
Mission
Spacecraft
Bus & Motor
Unknown
Mass
Unknown
Launch date (UTC)
1965-12-21 (60 years ago)
Launch vehicle
Unknown
Launch site
Air Force Eastern Test Range (AFETR)
Object type
Payload
Rocket body
Debris
Shape & HBR
Unknown shape, 0.2 m
Radar Cross Section
Medium (>0.1 m² and <1 m²)

Expand to show TLE details & history
Last TLE update: 5 days ago

TLE from 5 days ago
0 TITAN 3C TRANSTAGE DEB
1 26781U 65108AZ  25338.52696951  .00000535  00000-0  29018-2 0  9993
2 26781  27.3516  50.7409 6262433 350.7020   1.7690  3.43736601 76153
Epoch: 2025-12-04T12:38Z
TLE epoch observation values (Epoch: 2025-12-04T12:38:50.165Z)
Latitude
-0.00013°
Longitude
147.44131°
Altitude
582.583 km
Speed
9.645 km/s
True Right ascension
03h 22m 55s
True Declination
0° 00' 00"
Sunlit
Object was in full shadow at epoch
Visualization orbit readout
Latitude
Unknown
Longitude
Unknown
Altitude
Unknown
Speed
Unknown
Apparent Right ascension
Unknown
Apparent Declination
Unknown
Sunlit
N/A
Visualization observer readout
Local Sidereal Time
03:34:28
Azimuth
Unknown
Elevation
Unknown
Doppler factor
Unknown
Orbital elements
Apogee altitude
23,787.834 km
Perigee altitude
554.856 km
Semi-major axis
18,549.482 km
Eccentricity
0.62624
Inclination
27.3516°
RAAN
50.7409°
Arg. of periapsis
350.702°
True anomaly
9.83539°
Mean anomaly
1.769°
Eccentric anomaly
4.72406°
Mean motion
0.8591 °/min
Orbital period
419.04 mins
BSTAR
0.0029018
Loading maneuver chart data...
Computing Atmospheric mass density...

Documentation

Showing up to 5 results
|